When you browse on this site, cookies collect data to enhance your experience and personalize the content and advertising you see.
Visit our Privacy Policy to learn more. By continuing to use the site, you agree to this use of cookies and data.
  • In Portugal
  • List of Countries
  • For 7 days
  • Water Temperature
  • Satellite Maps
  • Weather Map
  • Weather Widgets
  • user-avatar
    Login

    Hourly Weather Janowiec

    Today, 10 December, Monday

    Time Temperature Precipitation Wind Pressure Humidity
    00:00 +3°C° 0.4 mm 5 mps 732 mmHg 88%
    01:00 +4°C° 0 mm 4 mps 733 mmHg 88%
    02:00 +3°C° 0.2 mm 5 mps 733 mmHg 84%
    03:00 +2°C° 0.2 mm 6 mps 734 mmHg 79%
    04:00 +2°C° 0.2 mm 7 mps 734 mmHg 74%
    05:00 +2°C° 0 mm 6 mps 735 mmHg 75%
    06:00 +2°C° 0 mm 6 mps 736 mmHg 75%
    07:00 +2°C° 0 mm 6 mps 736 mmHg 75%
    08:00 +2°C° 0 mm 6 mps 737 mmHg 74%
    09:00 +2°C° 0 mm 6 mps 737 mmHg 72%
    10:00 +2°C° 0 mm 6 mps 738 mmHg 71%
    11:00 +2°C° 0.1 mm 6 mps 738 mmHg 69%
    12:00 +2°C° 0.1 mm 6 mps 738 mmHg 67%
    13:00 +3°C° 0.1 mm 7 mps 738 mmHg 66%
    14:00 +2°C° 0.1 mm 6 mps 738 mmHg 68%
    15:00 +2°C° 0.1 mm 5 mps 738 mmHg 70%
    16:00 +1°C° 0.1 mm 5 mps 739 mmHg 72%
    17:00 +1°C° 0 mm 5 mps 739 mmHg 75%
    18:00 +1°C° 0 mm 4 mps 739 mmHg 77%
    19:00 0°C° 0 mm 4 mps 739 mmHg 80%
    20:00 0°C° 0 mm 4 mps 739 mmHg 81%
    21:00 0°C° 0 mm 4 mps 739 mmHg 82%
    22:00 0°C° 0 mm 4 mps 739 mmHg 83%
    23:00 0°C° 0.3 mm 4 mps 739 mmHg 83%

    Tomorrow, 11 December, Tuesday

    Time Temperature Precipitation Wind Pressure Humidity
    00:00 0°C° 0.3 mm 4 mps 739 mmHg 83%
    01:00 +1°C° 0.3 mm 4 mps 739 mmHg 83%
    02:00 +1°C° 0.2 mm 4 mps 739 mmHg 84%
    03:00 +1°C° 0.2 mm 3 mps 739 mmHg 85%
    04:00 +1°C° 0.2 mm 3 mps 739 mmHg 86%
    05:00 +2°C° 0.1 mm 2 mps 739 mmHg 88%
    06:00 +2°C° 0.1 mm 2 mps 740 mmHg 89%
    07:00 +2°C° 0.1 mm 2 mps 740 mmHg 90%
    08:00 +2°C° 0 mm 2 mps 740 mmHg 89%
    09:00 +2°C° 0 mm 2 mps 741 mmHg 89%
    10:00 +2°C° 0 mm 2 mps 741 mmHg 88%
    11:00 +3°C° 0 mm 2 mps 742 mmHg 86%
    12:00 +3°C° 0 mm 2 mps 742 mmHg 85%
    13:00 +3°C° 0 mm 2 mps 743 mmHg 83%
    14:00 +3°C° 0 mm 2 mps 743 mmHg 85%
    15:00 +2°C° 0 mm 3 mps 744 mmHg 87%
    16:00 +1°C° 0 mm 3 mps 744 mmHg 88%
    17:00 +1°C° 0 mm 3 mps 745 mmHg 89%
    18:00 +1°C° 0 mm 3 mps 745 mmHg 89%
    19:00 0°C° 0 mm 3 mps 746 mmHg 89%
    20:00 0°C° 0 mm 3 mps 746 mmHg 90%
    21:00 +1°C° 0 mm 2 mps 747 mmHg 91%
    22:00 -1°C° 0 mm 2 mps 747 mmHg 92%
    23:00 -1°C° 0 mm 2 mps 748 mmHg 92%

    Day after tomorrow, 12 December, Wednesday

    Time Temperature Precipitation Wind Pressure Humidity
    00:00 -1°C° 0 mm 2 mps 748 mmHg 93%
    01:00 -1°C° 0 mm 2 mps 748 mmHg 93%
    02:00 -1°C° 0 mm 2 mps 749 mmHg 93%
    03:00 +1°C° 0 mm 1 mps 749 mmHg 93%
    04:00 +1°C° 0 mm 1 mps 749 mmHg 93%
    05:00 +1°C° 0 mm 1 mps 750 mmHg 93%
    06:00 +1°C° 0 mm 1 mps 750 mmHg 93%
    07:00 +1°C° 0 mm 1 mps 750 mmHg 93%
    08:00 +1°C° 0 mm 1 mps 751 mmHg 91%
    09:00 +2°C° 0 mm 1 mps 751 mmHg 89%
    10:00 +2°C° 0 mm 1 mps 751 mmHg 87%
    11:00 +2°C° 0.3 mm 1 mps 751 mmHg 86%
    12:00 +3°C° 0.3 mm 1 mps 752 mmHg 85%
    13:00 +3°C° 0.3 mm 1 mps 752 mmHg 84%
    14:00 +3°C° 0.2 mm 1 mps 752 mmHg 87%
    15:00 +2°C° 0.2 mm 1 mps 752 mmHg 90%
    16:00 +2°C° 0.2 mm 1 mps 752 mmHg 92%
    17:00 +1°C° 0 mm 1 mps 752 mmHg 93%
    18:00 +1°C° 0 mm 1 mps 752 mmHg 94%
    19:00 0°C° 0 mm 1 mps 752 mmHg 94%
    20:00 0°C° 0 mm 1 mps 752 mmHg 94%
    21:00 0°C° 0 mm 1 mps 752 mmHg 95%
    22:00 0°C° 0 mm 1 mps 753 mmHg 95%
    23:00 0°C° 0 mm 1 mps 753 mmHg 95%

    13 December, Thursday

    Time Temperature Precipitation Wind Pressure Humidity
    00:00 0°C° 0 mm 1 mps 753 mmHg 95%
    01:00 0°C° 0 mm 1 mps 753 mmHg 95%
    02:00 0°C° 0 mm 1 mps 753 mmHg 95%
    03:00 0°C° 0 mm 1 mps 753 mmHg 95%
    04:00 0°C° 0 mm 1 mps 753 mmHg 96%
    05:00 0°C° 0 mm 1 mps 753 mmHg 95%
    06:00 -2°C° 0 mm 2 mps 753 mmHg 94%
    07:00 -2°C° 0 mm 2 mps 752 mmHg 94%
    08:00 -2°C° 0 mm 2 mps 753 mmHg 92%
    09:00 -1°C° 0 mm 2 mps 753 mmHg 90%
    10:00 -1°C° 0 mm 2 mps 753 mmHg 89%
    11:00 -1°C° 0 mm 2 mps 752 mmHg 87%
    12:00 +2°C° 0 mm 1 mps 752 mmHg 84%
    13:00 +2°C° 0 mm 1 mps 752 mmHg 82%
    14:00 +1°C° 0 mm 1 mps 752 mmHg 85%
    15:00 +1°C° 0 mm 1 mps 752 mmHg 87%
    16:00 +1°C° 0 mm 1 mps 752 mmHg 89%
    17:00 0°C° 0 mm 1 mps 752 mmHg 90%
    18:00 0°C° 0 mm 1 mps 752 mmHg 91%
    19:00 0°C° 0 mm 1 mps 752 mmHg 91%
    20:00 0°C° 0 mm 1 mps 752 mmHg 91%
    21:00 0°C° 0 mm 1 mps 753 mmHg 91%
    22:00 0°C° 0 mm 1 mps 753 mmHg 91%
    23:00 0°C° 0 mm 1 mps 753 mmHg 90%

    14 December, Friday

    Time Temperature Precipitation Wind Pressure Humidity
    00:00 0°C° 0 mm 1 mps 753 mmHg 89%
    01:00 0°C° 0 mm 1 mps 753 mmHg 89%
    02:00 0°C° 0 mm 1 mps 753 mmHg 89%
    03:00 -3°C° 0 mm 2 mps 753 mmHg 89%
    04:00 -3°C° 0 mm 2 mps 754 mmHg 89%
    05:00 -3°C° 0 mm 2 mps 754 mmHg 89%
    06:00 -1°C° 0 mm 1 mps 754 mmHg 89%
    07:00 -1°C° 0 mm 1 mps 754 mmHg 89%
    08:00 -3°C° 0 mm 2 mps 755 mmHg 88%
    09:00 -2°C° 0 mm 2 mps 755 mmHg 86%
    10:00 -2°C° 0 mm 2 mps 756 mmHg 84%
    11:00 -2°C° 0 mm 2 mps 756 mmHg 83%
    12:00 -1°C° 0 mm 2 mps 756 mmHg 82%
    13:00 +1°C° 0 mm 1 mps 756 mmHg 80%
    14:00 +1°C° 0 mm 1 mps 757 mmHg 83%
    15:00 0°C° 0 mm 1 mps 757 mmHg 86%
    16:00 0°C° 0 mm 1 mps 757 mmHg 89%
    17:00 0°C° 0.1 mm 1 mps 757 mmHg 90%
    18:00 -2°C° 0.1 mm 2 mps 758 mmHg 91%
    19:00 -2°C° 0.1 mm 2 mps 758 mmHg 92%
    20:00 -2°C° 0 mm 2 mps 758 mmHg 92%
    21:00 -2°C° 0 mm 2 mps 758 mmHg 93%
    22:00 -2°C° 0 mm 2 mps 759 mmHg 93%
    23:00 -2°C° 0 mm 2 mps 759 mmHg 93%

    15 December, Saturday

    Time Temperature Precipitation Wind Pressure Humidity
    00:00 0°C° 0 mm 1 mps 759 mmHg 93%
    01:00 0°C° 0 mm 1 mps 759 mmHg 93%
    02:00 0°C° 0 mm 1 mps 760 mmHg 94%
    03:00 0°C° 0 mm 1 mps 760 mmHg 94%
    04:00 0°C° 0 mm 1 mps 760 mmHg 94%
    05:00 -2°C° 0 mm 2 mps 760 mmHg 94%
    06:00 -2°C° 0 mm 2 mps 760 mmHg 93%
    07:00 -2°C° 0 mm 2 mps 761 mmHg 93%
    08:00 -2°C° 0 mm 2 mps 761 mmHg 92%
    09:00 -2°C° 0 mm 2 mps 761 mmHg 90%
    10:00 -2°C° 0 mm 3 mps 761 mmHg 88%
    11:00 -2°C° 0 mm 3 mps 761 mmHg 85%
    12:00 -1°C° 0 mm 2 mps 761 mmHg 82%
    13:00 -1°C° 0 mm 2 mps 761 mmHg 79%
    14:00 -2°C° 0 mm 2 mps 761 mmHg 81%
    15:00 -2°C° 0 mm 2 mps 762 mmHg 84%
    16:00 -3°C° 0 mm 2 mps 762 mmHg 86%
    17:00 -3°C° 0 mm 2 mps 762 mmHg 87%
    18:00 -3°C° 0 mm 2 mps 762 mmHg 87%
    19:00 -4°C° 0 mm 3 mps 762 mmHg 88%
    20:00 -4°C° 0 mm 3 mps 762 mmHg 88%
    21:00 -4°C° 0 mm 3 mps 762 mmHg 87%
    22:00 -4°C° 0 mm 4 mps 762 mmHg 87%
    23:00 -4°C° 0 mm 4 mps 762 mmHg 86%
    Show more